Weather History for Sedalia, MO

Change the Weather History Date:

Monday, December 30, 2013

  Actual Average Record
Temperature  
Mean Temperature 20 °F 32 °F  
Max Temperature 29 °F 40 °F 71 °F (1965)
Min Temperature 10 °F 23 °F -10 °F (1983)
Degree Days  
Heating Degree Days 45 33  
Month to date heating degree days 994 903  
Since 1 July heating degree days 1943 1748  
Cooling Degree Days 0 0  
Month to date cooling degree days 0 0  
Year to date cooling degree days 1485 1490  
Moisture  
Dew Point 6 °F    
Average Humidity 54    
Maximum Humidity 73    
Minimum Humidity 35    
Precipitation  
Precipitation 0.00 in 0.09 in 1.65 in (1984)
Month to date precipitation 1.63 2.24  
Year to date precipitation 40.69 41.03  
Sea Level Pressure  
Sea Level Pressure 30.31 in    
Wind  
Wind Speed 7 mph (SW)    
Max Wind Speed 15 mph    
Max Gust Speed 20 mph    
Visibility 10 miles    
Events      
T = Trace of Precipitation, MM = Missing Value Source: NWS Daily Summary

Daily Weather History Graph

Daily Weather History Graph

Search for Another Location

Airport:

Trip Planner

Search our weather history database for the weather conditions in past years. The results will help you decide how hot, cold, wet, or windy it might be!

Date:

Astronomy

Dec. 30, 2013 Rise Set
Actual Time 7:30 AM CST 5:00 PM CST
Civil Twilight 7:00 AM CST 5:30 PM CST
Nautical Twilight 6:27 AM CST 6:03 PM CST
Astronomical Twilight 5:55 AM CST 6:35 PM CST
Moon 5:21 AM CST (12/30) 3:33 PM CST (12/30)
Length of Visible Light 10h 29m
Length of Day
9h 30m
Waning Crescent, 4% of the Moon is Illuminated
Dec 30
Waning Crescent
Jan 1
New
Jan 7
First Quarter
Jan 15
Full
Jan 23
Last Quarter

Hourly Weather History & Observations

Time (CST) Temp. Windchill Dew Point Humidity Pressure Visibility Wind Dir Wind Speed Gust Speed Precip Events Conditions
12:53 AM 12.9 °F 2.6 °F 3.0 °F 65% 30.34 in 10.0 mi NW 6.9 mph - N/A   Clear
1:53 AM 12.0 °F 4.1 °F 3.9 °F 70% 30.34 in 10.0 mi NNW 4.6 mph - N/A   Clear
2:53 AM 12.0 °F 1.5 °F 3.9 °F 70% 30.36 in 10.0 mi NNW 6.9 mph - N/A   Clear
3:53 AM 10.9 °F 2.9 °F 3.9 °F 73% 30.36 in 10.0 mi North 4.6 mph - N/A   Clear
4:53 AM 10.0 °F 1.8 °F 1.9 °F 70% 30.36 in 10.0 mi North 4.6 mph - N/A   Clear
5:53 AM 10.9 °F - 1.0 °F 64% 30.36 in 10.0 mi Calm Calm - N/A   Clear
6:53 AM 10.0 °F - 1.9 °F 70% 30.37 in 10.0 mi Calm Calm - N/A   Clear
7:53 AM 12.0 °F 5.9 °F 3.0 °F 67% 30.37 in 10.0 mi ENE 3.5 mph - N/A   Clear
8:53 AM 12.9 °F - 1.0 °F 59% 30.37 in 10.0 mi Calm Calm - N/A   Clear
9:53 AM 14.0 °F 2.9 °F 3.0 °F 62% 30.36 in 10.0 mi SSE 8.1 mph - N/A   Clear
10:53 AM 17.1 °F 8.7 °F 3.0 °F 54% 30.35 in 10.0 mi SSE 5.8 mph - N/A   Mostly Cloudy
11:53 AM 19.0 °F 8.2 °F 3.9 °F 52% 30.30 in 10.0 mi South 9.2 mph - N/A   Mostly Cloudy
12:53 PM 23.0 °F 11.7 °F 3.9 °F 44% 30.28 in 10.0 mi SSW 11.5 mph - N/A   Overcast
1:53 PM 25.0 °F 16.3 °F 6.1 °F 45% 30.27 in 10.0 mi SW 8.1 mph - N/A   Overcast
2:53 PM 27.0 °F 18.7 °F 5.0 °F 39% 30.25 in 10.0 mi South 8.1 mph - N/A   Overcast
3:53 PM 28.0 °F 18.1 °F 5.0 °F 38% 30.25 in 10.0 mi SW 11.5 mph - N/A   Overcast
4:53 PM 27.0 °F 18.0 °F 7.0 °F 43% 30.23 in 10.0 mi SSW 9.2 mph - N/A   Overcast
5:53 PM 28.0 °F 20.0 °F 10.0 °F 47% 30.25 in 10.0 mi WSW 8.1 mph - N/A   Overcast
6:53 PM 28.0 °F 18.6 °F 12.0 °F 51% 30.25 in 10.0 mi WSW 10.4 mph 18.4 mph N/A   Mostly Cloudy
7:53 PM 28.0 °F 18.1 °F 12.9 °F 53% 30.27 in 10.0 mi WSW 11.5 mph 19.6 mph N/A   Overcast
8:53 PM 27.0 °F 16.7 °F 14.0 °F 58% 30.28 in 10.0 mi WSW 11.5 mph - N/A   Partly Cloudy
9:53 PM 26.1 °F 15.6 °F 14.0 °F 60% 30.29 in 10.0 mi WSW 11.5 mph - N/A   Clear
10:53 PM 25.0 °F 14.8 °F 15.1 °F 66% 30.30 in 10.0 mi WSW 10.4 mph - N/A   Clear
11:53 PM 26.1 °F 17.6 °F 15.1 °F 63% 30.30 in 10.0 mi WSW 8.1 mph - N/A   Clear